This demonstration page uses our WeatherBlox Daily Observations layout. Learn more.

Left ArrowRight Arrow

30.21309, -93.2044

Hourly Observations for October 22, 2015

Temp ( °F °C ) Dew Point ( °F °C ) Humidity (%) Winds ( mph kmh ) Pressure ( in mb ) Visibility ( mi km ) Precip ( " mm )
12:15 am 00:15 Clear 72 22 68 20.2 90 90 E 6 9 30.12 1020 10 16 0.00 0.00
12:35 am 00:35 Clear 71 21.9 68 20.1 90 90 E 6 9 30.12 1020 10 16 0.00 0.00
12:55 am 00:55 Clear 71 21.5 68 20 91 91 E 7 11 30.12 1020 10 16 0.00 0.00
1:15 am 01:15 Partly Cloudy 70 21.2 68 19.9 92 92 ESE 5 7 30.12 1020 10 16 0.00 0.00
1:35 am 01:35 Cloudy 70 21.2 68 20 93 93 E 5 7 30.12 1020 10 16 0.00 0.00
1:55 am 01:55 Cloudy 70 21.3 68 20 92 92 E 5 7 30.12 1020 10 16 0.00 0.00
2:15 am 02:15 Cloudy 70 21.3 68 20 92 92 E 6 9 30.09 1019 10 16 0.00 0.00
2:35 am 02:35 Cloudy 70 21.3 68 20 92 92 E 6 9 30.09 1019 10 16 0.00 0.00
2:55 am 02:55 Cloudy 71 21.6 68 20.2 92 92 E 8 13 30.09 1019 10 16 0.00 0.00
3:15 am 03:15 Cloudy 71 21.6 68 20.2 92 92 E 7 11 30.09 1019 10 16 0.00 0.00
3:35 am 03:35 Cloudy 71 21.5 68 20.1 92 92 E 9 15 30.09 1019 10 16 0.00 0.00
3:55 am 03:55 Cloudy 71 21.5 68 20.1 92 92 E 8 13 30.06 1018 10 16 0.00 0.00
4:15 am 04:15 Partly Cloudy 70 20.9 68 19.8 93 93 E 7 11 30.06 1018 10 16 0.00 0.00
4:35 am 04:35 Partly Cloudy 69 20.8 68 19.8 94 94 E 8 13 30.06 1018 10 16 0.00 0.00
4:55 am 04:55 Partly Cloudy 69 20.5 67 19.7 95 95 E 7 11 30.06 1018 10 16 0.00 0.00
5:15 am 05:15 Mostly Cloudy 69 20.5 67 19.7 95 95 E 6 9 30.06 1018 10 16 0.00 0.00
10:15 pm 22:15 Clear 74 23.3 70 21 87 87 SE 12 19 30.03 1017 10 16 0.00 0.00
10:35 pm 22:35 Clear 74 23.2 70 21.3 89 89 SE 12 19 30.03 1017 10 16 0.00 0.00
10:55 pm 22:55 Partly Cloudy 73 23 71 21.5 91 91 SE 8 13 30.06 1018 10 16 0.00 0.00
11:15 pm 23:15 Cloudy 73 23 71 21.6 92 92 SE 9 15 30.06 1018 10 16 0.00 0.00
11:35 pm 23:35 Cloudy 74 23.1 71 21.7 92 92 SE 12 19 30.03 1017 10 16 0.00 0.00
11:55 pm 23:55 Cloudy 74 23.3 71 21.9 92 92 SE 9 15 30.03 1017 10 16 0.00 0.00

Powered by AerisWeather